www.pogodaiklimat.ru

ПОГОДА в Чарышском

  • Прогноз погоды в Чарышском
  • Монитор погоды в Чарышском
  • Климат города

АРХИВ ПОГОДЫ в Чарышском

Время (UTC), дата Ветер
(напр.,м/с)
 
Видим.   Явления Облачность Т
(С)
Тd
(С)
f
(%)
Тe
(С)
Тes
(С)
Комфортность P
(гПа)
Po
(гПа)
Тmin
(С)
Tmax
(С)
R
(мм)
S
(см)
18 9.01 СЗ 2 50 км 10 баллов -7.6 -13.2 64 -12 -12 1032.4 977.3
21 9.01 В 1 50 км 10 баллов -9.4 -14.0 69 -12 -12 1034.3 978.7
00 10.01 штиль 0 50 км 10 баллов -9.1 -13.0 73 -10 -10 1032.8 977.3 -9.5
03 10.01 Ю 1 50 км 4 балла -11.9 -14.2 83 -14 -14 1033.4 977.3 -12.1
06 10.01 штиль 0 50 км 7 баллов -7.4 -13.6 61 -8 -7 1031.0 976.0
09 10.01 штиль 0 50 км 7 баллов -7.7 -13.1 65 1029.6 974.4
12 10.01 штиль 0 50 км 10 баллов -12.4 -15.1 80 -12 -12 1029.2 973.3 -3.7
15 10.01 Ю 1 50 км 2 балла -15.5 -17.9 82 -18 -18 1029.9 973.3
18 10.01 штиль 0 50 км 6 баллов -16.1 -18.3 83 -16 -16 1027.3 970.7
21 10.01 ЮВ 3 50 км 2 балла -12.9 -19.6 57 -19 -19 1025.1 969.3
00 11.01 ЮВ 4 50 км 1 балл -9.6 -19.6 44 -16 -16 1023.1 968.0 -16.8
03 11.01 ЮВ 2 50 км 8/0
[Ac trans Ci fib]
-8.7 -18.2 46 -13 -13 1021.0 966.1
06 11.01 штиль 0 50 км 8/0
[Ac As Ci fib]
-8.4 -17.1 49 -9 -7 1019.7 965.0
09 11.01 Ю 1 50 км 8/0
[Ac trans Ci fib]
-5.9 -15.5 47 -8 -7 1016.9 962.8
12 11.01 ЮВ 1 50 км 5/0
[Ac trans Ci fib]
-8.9 -15.7 58 -11 -11 1017.2 962.5 -2.5
15 11.01 Ю 4 50 км 9 баллов 0.0 -16.2 28 1015.4 962.7
18 11.01 Ю 5 50 км позёмок 9 баллов +2.5 -16.0 24 -2 -2 1015.0 962.7
21 11.01 ЮЗ 5 50 км 10 баллов +2.3 -14.3 28 -2 -2 1013.5 961.3
00 12.01 З 3
{15}
50 км 10/0
[As op]
-3.1 -7.2 73 -8 -8 1016.8 963.3 -9.7 36
03 12.01 СЗ 3 4000 м слабый снег 10/0
[As op]
-6.7 -8.6 86 -12 -12 1020.0 965.7
06 12.01 СЗ 4 20 км {снег} 10/0
[As op]
-6.4 -11.6 67 -13 -12 1021.3 966.9
09 12.01 З 2 4000 м слабый снег 10/0
[As op]
-7.8 -10.5 81 -12 -12 1024.0 969.1
12 12.01 З 3
{10}
50 км {снег} 3/0
[Ac trans]
-7.7 -16.2 50 -13 -13 1025.3 970.4 -3.1 2
15 12.01 Ю 2
{11}
50 км 3/0
[Cs]
-8.0 -16.7 50 -12 -12 1027.0 972.0
18 12.01 СЗ 3 50 км {метель} 10/0
[Ac und]
-10.6 -16.5 62 -16 -16 1027.1 971.7
21 12.01 С 2 50 км 10/0
[Ac und]
-10.2 -14.2 72 -15 -15 1027.7 972.3
00 13.01 штиль 0 50 км 10/0
[As trans]
-12.5 -15.4 79 -13 -13 1029.0 973.0 -12.5 36
03 13.01 штиль 0 10 км слабый снег 10 баллов -12.4 -14.4 85 -12 -12 1030.7 974.7 -13.5
06 13.01 СЗ 1 10 км слабый снег 10/0
[As op]
-11.6 -15.3 74 -14 -13 1030.3 974.5
09 13.01 ЮВ 1 50 км 3/0
[Ci fib]
-11.5 -15.9 70 -14 -13 1030.8 974.9
12 13.01 штиль 0 50 км ясно -17.3 -20.1 79 -17 -17 1034.6 977.3 -8.6 0.9
15 13.01 ЮВ 1 50 км 1/0
[As op]
-20.9 -23.5 80 -24 -24 1036.0 977.7
18 13.01 штиль 0 50 км 8/0
[Ac cuf]
-22.8 -25.7 77 -23 -23 1036.9 978.2
21 13.01 штиль 0 50 км 3/0
[Ac lent]
-24.2 -27.2 76 -24 -24 1037.3 978.3
00 14.01 штиль 0 50 км 6/0
[Ac trans]
-24.6 -27.8 75 1037.7 978.4 -24.9
03 14.01 штиль 0 50 км 6/0
[Ac trans Ci fib]
-23.9 -27.0 75 -24 -24 1037.1 978.1
06 14.01 ЮВ 1 50 км 8/0
[Ac As Ci fib]
-18.9 -22.0 76 -22 -20 1034.7 976.9
09 14.01 ЮВ 1 50 км 10/0
[As op]
-15.3 -20.0 67 -18 -18 1033.3 976.5
12 14.01 штиль 0 50 км 10/0
[As op]
-14.3 -18.5 70 -14 -14 1033.0 976.4 -14.3
15 14.01 ЮВ 1 50 км 10/0
[As trans]
-13.2 -16.7 75 -16 -16 1032.7 976.4
18 14.01 З 2 50 км 10/0
[Ac As Ci fib]
-7.0 -13.8 58 -11 -11 1031.6 976.6
21 14.01 СЗ 2 50 км 10/0
[Ac und]
-7.4 -14.0 59 -12 -12 1032.7 977.6
00 15.01 СЗ 2 50 км 10/0
[As op]
-10.5 -13.9 76 -15 -15 1035.5 979.6 -14.3 36
03 15.01 СЗ 2 10 км слабый снег 10/0
[As op]
-10.7 -14.5 74 -15 -15 1037.3 981.1
06 15.01 С 1 50 км {снег} 8/0
[As op Ci fib]
-9.8 -15.4 64 -12 -11 1038.3 982.3
09 15.01 З 2 50 км 5/0
[As op Ci fib]
-11.5 -15.3 73 -16 -15 1040.4 984.0
12 15.01 Ю 1 50 км 3/0
[Ci fib]
-16.4 -18.9 81 -19 -19 1042.7 985.1 -8.6 0.4
15 15.01 штиль 0 50 км 1/0
[Ci fib]
-18.9 -21.4 81 -19 -19 1043.9 985.6
18 15.01 штиль 0 50 км 9/0
[Ac As]
-18.1 -20.6 81 -18 -18 1042.0 984.1
21 15.01 штиль 0 50 км 10/0
[As trans]
-17.2 -19.7 81 -17 -17 1041.6 983.9
00 16.01 штиль 0 50 км 10/0
[As trans]
-15.6 -18.2 80 -16 -16 1040.8 983.3 -19.8 36
03 16.01 СЗ 1 4000 м слабый снег 10/0
[As op]
-14.6 -17.0 82 -17 -17 1039.9 982.9
06 16.01 штиль 0 50 км {снег} 6/0
[As op Ci fib]
-11.2 -15.5 70
09 16.01 штиль 0 20 км 10/0
[As op]
-10.1 -14.5 70
12 16.01 штиль 0 50 км 10/0
[As op]
-11.8 -14.7 79 -12 -12 1038.6 982.1 -9.5 2
15 16.01 ЮВ 1 50 км 10/0
[As trans]
-14.5 -16.8 83 -17 -17 1039.5 982.6

 

Местоположение метеостанции Чарышское (Алтайский край, Россия): широта 51.38 долгота 83.58 высота над уровнем моря 429 м.

В архиве по умолчанию представлена погода в Чарышском за последнюю неделю. Архивные данные за месяц целиком и за предыдущие месяцы, начиная с января 2011 года, Вы можете получить, выбрав интересующий диапазон дат из раскрывающегося списка и нажав кнопку "Ввод!".

Внимание! Время в таблицах - всемирное. Для получения местного времени необходимо прибавить поправку, которая в Чарышском равна 7 ч.

Ветер - указаны скорость ветра в м/с - средняя за 10 мин, порывы в срок и между сроками (в фигурных скобках) и направление, откуда дует ветер: С - северный, СВ - северо-восточный, В - восточный, ЮВ - юго-восточный, Ю - южный, ЮЗ - юго-западный, З - западный, СЗ - северо-западный.
Видимость - горизонтальная дальность видимости в метрах или километрах. При видимости от 1 до 10 км при отсутствии осадков обычно наблюдается дымка, при ухудшении видимости до 1 км и менее - туман. В сухую погоду видимость может ухудшаться дымом, пылью или мглою.
Явления - указаны атмосферные явления, наблюдавшиеся в срок или в последний час перед сроком; фигурными скобками обозначены явления, наблюдавшиеся между сроками (за 1-3 часа до срока); квадратными скобками обозначены град или гололедные отложения с указанием их диаметра в мм.
Облачность - указаны через наклонную черту общая и нижняя облачность в баллах и высота нижней границы облаков в метрах; квадратными скобками обозначены формы облаков: Ci - перистые, Cs - перисто-слоистые, Cc - перисто-кучевые, Ac - высококучевые, As - высокослоистые, Sc - слоисто-кучевые, Ns - слоисто-дождевые, Cu - кучевые, Cb - кучево-дождевые. Подробнее классификацию облаков см. в Атласе облаков (PDF).
T - Температура воздуха - температура, измеренная на высоте 2 м над землей.
Td - Температура точки росы - температура, при понижении до которой содержащийся в воздухе водяной пар достигнет насыщения.
f - Относительная влажность воздуха - влажноcть воздуха, измеренная на высоте 2 м над землей.
Te - Эффективная температура - температура, которую ощущает одетый по сезону человек в тени. Характеристика душности погоды. При расчете учитывается влияние влажности воздуха и скорости ветра на теплоощущения человека.
Tes - Эффективная температура на солнце - температура, которую ощущает человек, с поправкой на солнечный нагрев. Характеристика знойности погоды. Зависит от высоты солнца над горизонтом, облачности и скорости ветра. Ночью, в пасмурную погоду, а также при ветре 12 м/с и более поправка равна нулю.
P - Атмосферное давление - приведенное к уровню моря атмосферное давление.
Po - Атмосферное давление - измеренное на уровне метеостанции атмосферное давление.
Tmin - Минимальная температура - минимум температуры воздуха на высоте 2 м над землей.
Tmax - Максимальная температура - максимум температуры воздуха на высоте 2 м над землей.
R - Количество осадков - Количество выпавших осадков, мм. При наведении курсора мыши на число - период времени, за который выпало указанное количество осадков.
S - Снежный покров - Высота снежного покрова, см. При наведении курсора мыши на число - состояние снежного покрова и степень покрытия местности в баллах.